Tracking 30696 objects as of 15-Jun-2025
HD Live streaming from Space Station
objects crossing your sky now

STARLINK-6337

Track STARLINK-6337 now!
10-day predictions
STARLINK-6337 is classified as:


NORAD ID: 56528
Int'l Code: 2023-065AB
Perigee: 565.4 km
Apogee: 567.1 km
Inclination: 43.0 °
Period: 95.8 minutes
Semi major axis: 6937 km
RCS: Unknown
Launch date: May 14, 2023
Source: United States (US)
Launch site: AIR FORCE EASTERN TEST RANGE (AFETR)
Your satellite tracking list
Your tracking list is empty




NASA's NSSDC Master Catalog

Two Line Element Set (TLE):
1 56528U 23065AB  25166.20980199 -.00000120  00000-0  61731-5 0  9997
2 56528  43.0026 223.3323 0001203 271.9723  88.0982 15.02531179115611
Source of the keplerian elements: AFSPC